CW1558 Weather Reports


Display with metric or nautical units.
time (UTC)temp
F
wind
direction
speed
MPH
gust
MPH
rain 1hr
in
rain 24hr
in
rain mn
in
humidity
%
barometer
mb
20260503183057 78 150 0.0 0.0 0.00 0.00 0.00 51 1012.6
20260503181535 77 321 0.0 1.0 0.00 0.00 0.00 53 1012.7
20260503180036 76 321 0.0 1.0 0.00 0.00 0.00 53 1012.8
20260503174527 75 333 0.0 0.0 0.00 0.00 0.00 55 1012.9
20260503173025 74 333 0.0 0.0 0.00 0.00 0.00 58 1012.9
20260503171518 72 333 0.0 1.0 0.00 0.00 0.00 58 1013.0
20260503120103 0 0.0 0.0 0.00 0.00 0.00 1013.4
20260503081545 0 0.0 0.0 0.00 0.00 0.00 1013.9
20260503071527 0 0.0 0.0 0.00 0.00 0.00 1014.0
20260503054502 0 0.0 0.0 0.00 0.00 0.00 1013.7
20260503053056 0 0.0 0.0 0.00 0.00 0.00 1013.8
20260503051553 0 0.0 0.0 0.00 0.00 0.00 1013.7
20260503050047 0 0.0 0.0 0.00 0.00 0.00 1013.6
20260503044544 0 0.0 0.0 0.00 0.00 0.00 1013.5
20260503043042 0 0.0 0.0 0.00 0.00 0.00 1013.4
20260503041534 0 0.0 0.0 0.00 0.00 0.00 1013.2
20260503040039 0 0.0 0.0 0.00 0.00 0.00 1013.0
20260503034538 0 0.0 0.0 0.00 0.00 0.00 1012.6
20260503033021 0 0.0 0.0 0.00 0.00 0.00 1012.4
20260503031520 0 0.0 0.0 0.00 0.00 0.00 1012.2
20260503030014 0 0.0 0.0 0.00 0.00 0.00 1012.0
20260503024508 0 0.0 0.0 0.00 0.00 0.00 1011.9
20260503023007 71 74 0.0 0.0 0.00 0.00 0.00 59 1011.9
20260503021507 71 74 0.0 0.0 0.00 0.00 0.00 57 1011.9
20260503020007 72 74 0.0 0.0 0.00 0.00 0.00 56 1011.8
20260503014512 73 278 0.0 0.0 0.00 0.00 0.00 55 1011.8
20260503013006 74 58 0.0 0.0 0.00 0.00 0.00 52 1011.7
20260503011506 75 55 0.0 0.0 0.00 0.00 0.00 54 1011.9
20260503010005 75 55 0.0 0.0 0.00 0.00 0.00 53 1011.8
20260503004503 76 55 0.0 0.0 0.00 0.00 0.00 50 1011.9
20260503003002 78 5 0.0 0.0 0.00 0.00 0.00 48 1012.1
20260503001502 79 5 0.0 0.0 0.00 0.00 0.00 48 1012.1
20260503000001 79 5 0.0 0.0 0.00 0.00 0.00 49 1012.1
20260502234600 79 5 0.0 1.0 0.00 0.00 0.00 47 1012.2
20260502233103 79 19 0.0 1.0 0.00 0.00 0.00 49 1012.5
20260502231606 79 19 0.0 1.0 0.00 0.00 0.00 51 1012.6
20260502230055 79 41 0.0 1.0 0.00 0.00 0.00 49 1012.8
20260502224553 79 35 0.0 1.0 0.00 0.00 0.00 50 1012.9
20260502223049 78 36 0.0 1.0 0.00 0.00 0.00 49 1013.2
20260502221546 78 51 0.0 0.0 0.00 0.00 0.00 49 1013.4
20260502220145 77 355 0.0 0.0 0.00 0.00 0.00 50 1013.5
20260502214540 76 309 0.0 2.0 0.00 0.00 0.00 54 1013.7
20260502213037 76 47 0.0 1.0 0.00 0.00 0.00 55 1013.9
20260502211544 75 122 0.0 1.0 0.00 0.00 0.00 53 1013.9
20260502210032 75 360 0.0 2.0 0.00 0.00 0.00 55 1014.1
20260502204530 74 173 0.0 2.0 0.00 0.00 0.00 55 1014.3
20260502203027 73 332 0.0 2.0 0.00 0.00 0.00 55 1014.4
20260502201522 72 297 0.0 1.0 0.00 0.00 0.00 58 1014.5
20260502200018 71 269 0.0 1.0 0.00 0.00 0.00 61 1014.6
20260502194513 69 254 0.0 1.0 0.00 0.00 0.00 64 1014.9
20260502193012 68 18 0.0 1.0 0.00 0.00 0.00 61 1015.0
20260502191517 68 288 0.0 3.0 0.00 0.00 0.00 63 1015.3
20260502190006 68 321 0.0 1.0 0.00 0.00 0.00 67 1015.4
20260502184503 66 31 0.0 1.0 0.00 0.00 0.00 66 1015.6